Location: Liverpool
(53.4084°N, 2.9916°W)
Time: 13:38:40
(UTC+00:00)

Envisat - Visible Passes

Search period start: 28 February 2021 00:00
Search period end: 10 March 2021 00:00
Orbit: 764 x 766 km, 98.1° (Epoch: 27 February)

Date Brightness Start Highest point End Pass type
(mag) Time Alt. Az. Time Alt. Az. Time Alt. Az.
28 Feb 5.0 05:10:33 10° NNE 05:15:02 30° E 05:19:29 10° SSE visible
01 Mar 6.0 04:34:39 10° NE 04:37:46 16° E 04:40:52 10° ESE visible
01 Mar 3.1 06:12:25 10° NNE 06:17:33 89° ESE 06:22:38 10° SSW visible
02 Mar 4.2 05:35:42 10° NNE 05:40:37 47° E 05:45:31 10° S visible
02 Mar 6.4 18:39:07 10° WSW 18:41:30 13° W 18:43:53 10° NW visible
03 Mar 5.4 04:59:19 10° NE 05:03:30 25° E 05:07:39 10° SE visible
04 Mar 6.1 04:23:48 10° NE 04:26:10 13° E 04:28:32 10° ESE visible
04 Mar 3.3 06:01:00 10° NNE 06:06:07 74° ESE 06:11:12 10° S visible
05 Mar 4.6 05:24:21 10° NNE 05:29:07 39° E 05:33:52 10° SSE visible
05 Mar 6.2 18:26:47 10° SW 18:29:53 16° W 18:33:02 10° NW visible
06 Mar 5.7 04:48:08 10° NE 04:51:56 21° E 04:55:43 10° SE visible
07 Mar 6.4 04:13:33 10° ENE 04:14:32 10° E 04:15:31 10° E visible
07 Mar 3.7 05:49:35 10° NNE 05:54:39 61° ESE 05:59:41 10° S visible
08 Mar 5.0 05:13:02 10° NNE 05:17:36 32° E 05:22:08 10° SSE visible
09 Mar 5.9 04:37:02 10° NE 04:40:22 17° E 04:43:40 10° SE visible
